Tracking 31027 objects as of 19-Jul-2025
HD Live streaming from Space Station
objects crossing your sky now

STARLINK-1542

Track STARLINK-1542 now!
10-day predictions
STARLINK-1542 is classified as:


NORAD ID: 46073
Int'l Code: 2020-055AY
Perigee: 553.3 km
Apogee: 555.4 km
Inclination: 53.1 °
Period: 95.6 minutes
Semi major axis: 6925 km
RCS: Unknown
Launch date: August 7, 2020
Source: United States (US)
Launch site: AIR FORCE EASTERN TEST RANGE (AFETR)
Your satellite tracking list
FLOCK 4V 13
Track 1 satellite(s)




NASA's NSSDC Master Catalog

Two Line Element Set (TLE):
1 46073U 20055AY  25199.33910799 -.00000480  00000-0 -13332-4 0  9999
2 46073  53.0554  68.6632 0001478  99.3586 260.7570 15.06400160273456
Source of the keplerian elements: AFSPC